Aérodrome :
LOGIN :

S'inscrire | Disclaimer

   EN    FR    IT 

 










Légende :    VFR   VFR Marginal   IFR   IFR Intensif   IFR Très Intensif
Visi : 
Plafond : 
>= 8 km
>= 3000ft
5 à 8 km
1000 à 3000 ft
1500m à 5 km
500 à 1000 ft
800 à 1500m
200 à 500 ft
< 800m
< 200 ft
Symboles :   Orages  Brouillard  Fortes neiges  Fortes précipitations  Vent > 20 kt
SIGMETs :   Divers  Orages  Givrage  Turbulence  Onde Orograph.  Cendres Volcan.







- Altitude de l'aérodrome : 177 ft
- Code IATA : BRI


LIBD - Palese Macchie Bari

DERNIER METAR :
  • 221020Z 08010KT 9999 FEW025 28/17 Q1018

METARs EXPIRÉS :
  • 220950Z 09000KT 050V120 CAVOK 28/17 Q1018
  • 220920Z VRB04KT CAVOK 28/17 Q1018
  • 220850Z VRB02KT CAVOK 28/16 Q1018
  • 220820Z VRB02KT CAVOK 26/18 Q1017
  • 220750Z 21004KT 150V270 CAVOK 25/18 Q1017

TAF TAF LIBD
Valide du 22 à 06h jusqu'au 23 à 06h UTC


220500Z 2206/2306 VRB05KT 9999 SCT030
BECMG 2209/2211 08010KT
BECMG 2217/2219 VRB05KT
Pas de NOTAMs connus pour ce terrain.



MET'MAP, la Météo Aéronautique d'un coup d'oeil ! - Copyright ORBIFLY Décembre 2007 - Disclaimer

ORBIFLY MET'MAP TEAM :

Programmation & Développement : Alexandra Zaïnal
Conception & Développement : Baudouin d'Aumeries
Co-Programmation & Développement : Marc-Olivier Méhu
Soutien technique & logistique : Manuel Goepfert

Contact : metmap@orbifly.com




SOURCES & CREDITS :

   NOAA